Portada
METAR-TAF:

METAR-TAF

Aeropuertos :

La Gomera, España

Aeropuerto de La Gomera

latitud: 28-01-47N, longitud: 017-12-53W, altitud: 218 m

Observación

El informe se hizo hace 41 minutos, a las 18:00 UTC
Viento calma
Temperatura 20°C
Humedad 78%
Presión 1022 hPa
Visibilidad 10 km o más
Escasas nubes a una altura de 3300 ft

METAR: GCGM 161800Z 00000KT 9999 FEW033 20/16 Q1022 RMK R09/VRB01KT ARP/VRB01KT

Hora: 18:41 (18:41 UTC)


TAF: falta

Observaciones y pronósticos meteorológicos de más de 4000 aeropuertos (mensajes METAR y TAF).

Los puntos amarillos y rojos representan las estaciones disponibles.

Ponga el ratón en el punto deseado para ver el nombre de la estación.

Haga clic para ver las observaciones y los pronósticos meteorológicos.

Para cambiar el mapa : haga clic en los botones verdes con una cruz de color negro para hacer un zoom, en el botón verde con un guión para alejar o en las flechas verdes para mapas adyacentes.


METAR-TAF: